[[{"header":{"parameterUnit":"m.s-1","parameterCategory":1,"la1":30.2991,"la2":30.254,"lo1":-89.0895,"lo2":-89.0444,"dy":0.0017,"dx":0.0017,"nx":28,"ny":28,"refTime":"2024-05-14T03:00:00:Z","depth":0,"parameterNumber":2,"parameterNumberName":"U-component_of_WINDS"},"data":[0,0,0,0,0,0,0,0,0,0,0,0,0,0,0,0,0,0,0,0,0,0,0,0,0,0,0,0,0,0,0,0,0,0,0,0,0,0,0,0,0,0,0,0,0,0,0,0,0,0,0,0,0,0,0,0,0,0,-5.5487,-5.5487,0,-5.5396,-5.5395,-5.5394,-5.5224,-5.5221,-5.5218,-5.5215,-5.5122,-5.5122,-5.5123,0,0,0,0,0,0,0,0,0,0,0,0,0,-5.5515,-5.5515,-5.5488,-5.5486,-5.5485,-5.5396,-5.5395,-5.5393,-5.5225,-5.5221,-5.5217,-5.5213,-5.5121,-5.5122,-5.5123,0,0,0,0,0,0,0,0,0,0,0,0,0,-5.5471,-5.5516,-5.5488,-5.539,-5.5381,-5.5396,-5.5395,-5.5393,-5.5226,-5.5221,-5.5216,-5.5212,-5.5121,-5.5122,-5.5123,-5.5226,0,0,-5.5125,-5.5126,0,0,0,0,0,0,0,0,-5.5474,-5.5471,-5.5406,-5.5397,-5.5386,-5.5316,-5.537,-5.5337,-5.5227,-5.5285,-5.5215,-5.5209,-5.5191,-5.5185,-5.5179,-5.5222,-5.5218,-5.5126,-5.5126,-5.5126,-5.5127,0,0,0,0,0,0,0,-5.5477,-5.5474,-5.5451,-5.5405,-5.5393,-5.5351,-5.5339,-5.5363,-5.5266,-5.5279,-5.5267,-5.5258,-5.5184,-5.5179,-5.5175,-5.5216,-5.5126,-5.5126,-5.5127,-5.5127,-5.5334,-5.5338,0,0,0,0,0,0,-5.5495,-5.5477,-5.5454,-5.5448,-5.5419,-5.5354,-5.5341,-5.5344,-5.5265,-5.5249,-5.5263,-5.5251,-5.5179,-5.5175,-5.5172,-5.5284,-5.5126,-5.5127,-5.5128,-5.5329,-5.5335,-5.534,0,0,0,0,0,0,-5.5496,-5.5494,-5.5458,-5.5459,-5.5451,-5.5359,-5.5363,-5.5345,-5.5339,-5.5253,-5.5235,-5.5275,-5.5175,-5.517,-5.5212,-5.5278,-5.5128,-5.5128,-5.5323,-5.5331,-5.5338,-5.5512,0,0,0,0,0,0,-5.5497,-5.5496,-5.5535,-5.5461,-5.5452,-5.5502,-5.5367,-5.5346,-5.5341,-5.5324,-5.5259,-5.5244,-5.5171,-5.5212,-5.5213,-5.5277,-5.5129,-5.5317,-5.5326,-5.5335,-5.55,-5.5524,-5.5545,0,0,0,0,0,-5.5499,-5.5589,-5.5538,-5.5536,-5.5499,-5.5506,-5.55,-5.5415,-5.5347,-5.5384,-5.5328,-5.5246,-5.5271,-5.5218,-5.5218,-5.5283,-5.5312,-5.5324,-5.5334,-5.5489,-5.5519,-5.5545,0,0,0,0,0,0,-5.5673,-5.5577,-5.552,-5.5588,-5.5556,-5.5477,-5.5523,-5.545,-5.5437,-5.5423,-5.5317,-5.5304,-5.5359,-5.5325,-5.5267,-5.5375,-5.5278,-5.529,-5.5396,-5.5424,-5.5446,-5.5453,-5.513,0,0,0,0,0,-5.5719,-5.5733,-5.5649,-5.5717,-5.5704,-5.5617,-5.5617,-5.5553,-5.5516,-5.5502,-5.5449,-5.5416,-5.5415,-5.5418,-5.5413,-5.5494,-5.5475,-5.5538,-5.556,-5.558,-5.5591,-5.5626,-5.5652,-5.5377,-5.5377,-5.5377,0,0,-5.5815,-5.5765,-5.578,-5.5751,-5.5719,-5.5734,-5.5606,-5.563,-5.5639,-5.5505,-5.5541,-5.5501,-5.5457,-5.5518,-5.5542,-5.5491,-5.5662,-5.5594,-5.561,-5.561,-5.5641,-5.5667,-5.569,-5.5385,-5.5383,-5.5382,0,0,-5.5998,-5.5962,-5.6013,-5.5983,-5.5935,-5.5876,-5.5888,-5.582,-5.5787,-5.5821,-5.572,-5.573,-5.5733,-5.5704,-5.569,-5.5858,-5.578,-5.5859,-5.5978,-5.6014,-5.6036,-5.6055,-5.6111,-5.6134,-5.5871,-5.5871,-5.5872,0,-5.6123,-5.6143,-5.6049,-5.6077,-5.6066,-5.5944,-5.5994,-5.5969,-5.5923,-5.5918,-5.5861,-5.5859,-5.5821,-5.5872,-5.5912,-5.5906,-5.5915,-5.5866,-5.6041,-5.6058,-5.6074,-5.6127,-5.6149,-5.5881,-5.588,-5.5879,-5.5878,0,-5.6298,-5.6313,-5.6361,-5.6317,-5.6311,-5.6351,-5.6262,-5.6267,-5.6203,-5.615,-5.6184,-5.6133,-5.6114,-5.6122,-5.6061,-5.6162,-5.6132,-5.606,-5.5959,-5.6112,-5.6159,-5.6179,-5.5895,-5.5892,-5.5889,-5.5886,0,0,-5.659,-5.6491,-5.651,-5.6487,-5.6424,-5.6433,-5.6466,-5.6447,-5.6452,-5.6423,-5.6446,-5.645,-5.6381,-5.6365,-5.6299,-5.6332,-5.6463,-5.6254,-5.6252,-5.6293,-5.6568,-5.6622,-5.6647,-5.6412,-5.6415,-5.6418,-5.6571,0,-5.6757,-5.6807,-5.6722,-5.6792,-5.6803,-5.6685,-5.6712,-5.6676,-5.6626,-5.6627,-5.6571,-5.6574,-5.6485,-5.6474,-5.65,-5.6442,-5.6517,-5.643,-5.643,-5.6431,-5.6443,-5.6672,-5.673,-5.6877,-5.6589,-5.6592,-5.6595,0,-5.696,-5.6939,-5.701,-5.6938,-5.694,-5.6967,-5.694,-5.6943,-5.6898,-5.6859,-5.6839,-5.6761,-5.6785,-5.6689,-5.6719,-5.6662,-5.6657,-5.6628,-5.6631,-5.6627,-5.6521,-5.6672,-5.6922,-5.6943,-5.6624,-5.6621,-5.6619,0,-5.7162,-5.7152,-5.7192,-5.7177,-5.7095,-5.7116,-5.7083,-5.7033,-5.7026,-5.7002,-5.6995,-5.6976,-5.6965,-5.695,-5.6867,-5.6805,-5.6906,-5.6804,-5.6872,-5.6874,-5.6898,-5.6898,-5.7149,-5.6899,-5.6898,-5.6898,-5.6897,0,-5.7357,-5.7405,-5.7281,-5.7306,-5.7354,-5.7255,-5.7305,-5.726,-5.7215,-5.7227,-5.7125,-5.7138,-5.7028,-5.7029,-5.6964,-5.6997,-5.6993,-5.696,-5.6942,-5.6969,-5.6973,-5.6963,-5.695,-5.6904,-5.6902,-5.6901,-5.69,0,-5.7592,-5.7512,-5.7547,-5.7466,-5.7446,-5.7485,-5.7415,-5.7433,-5.7375,-5.7391,-5.7389,-5.7298,-5.7293,-5.7208,-5.7186,-5.7142,-5.72,-5.7164,-5.7215,-5.7203,-5.7274,-5.7268,-5.7527,-5.7554,-5.7289,-5.7292,-5.7294,0,-5.7721,-5.7754,-5.7676,-5.7676,-5.7648,-5.7651,-5.7641,-5.7544,-5.7539,-5.7487,-5.7511,-5.7497,-5.7481,-5.7478,-5.7408,-5.7389,-5.735,-5.7442,-5.7347,-5.7371,-5.7348,-5.7346,-5.7347,-5.7462,-5.7466,-5.7468,-5.7471,0,-5.7958,-5.7916,-5.7907,-5.7884,-5.7875,-5.7852,-5.7823,-5.7829,-5.7721,-5.772,-5.7713,-5.77,-5.7675,-5.7661,-5.7629,-5.7593,-5.7513,-5.7501,-5.7515,-5.7542,-5.7569,-5.7552,-5.7268,-5.7495,-5.7493,-5.7491,-5.749,-5.7489,-5.8142,-5.8164,-5.8112,-5.8104,-5.8071,-5.8045,-5.8057,-5.7999,-5.7992,-5.7963,-5.7906,-5.7907,-5.7856,-5.7804,-5.7774,-5.7772,-5.7724,-5.7746,-5.7751,-5.7757,-5.777,-5.7571,-5.7766,-5.7765,-5.7764,-5.7764,-5.7763,0,-5.8371,-5.8331,-5.8325,-5.8286,-5.8279,-5.8204,-5.8166,-5.8165,-5.8167,-5.8127,-5.8112,-5.8102,-5.8087,-5.8015,-5.7992,-5.8004,-5.7966,-5.8001,-5.7998,-5.799,-5.7816,-5.7804,-5.8031,-5.8031,-5.8031,-5.8031,-5.8031,-5.8031,-5.849,-5.8523,-5.8474,-5.8488,-5.8446,-5.8446,-5.8431,-5.8404,-5.8371,-5.8364,-5.8351,-5.8304,-5.825,-5.8221,-5.8203,-5.8182,-5.8177,-5.8223,-5.819,-5.8029,-5.8003,-5.7978,-5.7967,-5.8224,-5.8224,-5.8363,-5.8364,-5.8366]},{"header":{"parameterUnit":"m.s-1","parameterCategory":1,"la1":30.2991,"la2":30.254,"lo1":-89.0895,"lo2":-89.0444,"dy":0.0017,"dx":0.0017,"nx":28,"ny":28,"refTime":"2024-05-14T03:00:00:Z","depth":0,"parameterNumber":3,"parameterNumberName":"V-component_of_WINDS"},"data":[0,0,0,0,0,0,0,0,0,0,0,0,0,0,0,0,0,0,0,0,0,0,0,0,0,0,0,0,0,0,0,0,0,0,0,0,0,0,0,0,0,0,0,0,0,0,0,0,0,0,0,0,0,0,0,0,0,0,-4.4383,-4.4386,0,-4.4634,-4.4637,-4.464,-4.4592,-4.4588,-4.4583,-4.4579,-4.4841,-4.4852,-4.4863,0,0,0,0,0,0,0,0,0,0,0,0,0,-4.3868,-4.3878,-4.4383,-4.4386,-4.4389,-4.4633,-4.4637,-4.464,-4.4593,-4.4587,-4.4582,-4.4577,-4.4837,-4.485,-4.4864,0,0,0,0,0,0,0,0,0,0,0,0,0,-4.4103,-4.3881,-4.4382,-4.4395,-4.4399,-4.4633,-4.4637,-4.4641,-4.4594,-4.4587,-4.458,-4.4574,-4.4833,-4.4849,-4.4866,-4.5105,0,0,-4.4917,-4.4924,0,0,0,0,0,0,0,0,-4.4089,-4.4122,-4.439,-4.4395,-4.4399,-4.4575,-4.4551,-4.4797,-4.4596,-4.452,-4.4579,-4.4571,-4.4758,-4.4781,-4.4843,-4.5117,-4.5128,-4.4918,-4.4928,-4.4936,-4.494,0,0,0,0,0,0,0,-4.4073,-4.411,-4.4482,-4.4394,-4.44,-4.439,-4.4415,-4.4598,-4.4674,-4.4526,-4.4523,-4.4553,-4.4759,-4.4827,-4.4848,-4.5132,-4.4918,-4.4933,-4.4943,-4.495,-4.5618,-4.5625,0,0,0,0,0,0,-4.4052,-4.4097,-4.4474,-4.449,-4.4224,-4.4404,-4.4433,-4.4525,-4.4672,-4.4688,-4.4559,-4.455,-4.4801,-4.4829,-4.4857,-4.5149,-4.4936,-4.4951,-4.4961,-4.561,-4.5619,-4.5628,0,0,0,0,0,0,-4.4041,-4.4086,-4.4464,-4.4293,-4.434,-4.442,-4.4524,-4.4534,-4.4601,-4.4697,-4.471,-4.4613,-4.4797,-4.4834,-4.5044,-4.5157,-4.4959,-4.4974,-4.5601,-4.5613,-4.5623,-4.5733,0,0,0,0,0,0,-4.4027,-4.4082,-4.4173,-4.4295,-4.435,-4.4645,-4.4531,-4.4544,-4.4629,-4.462,-4.4751,-4.4767,-4.4794,-4.5019,-4.506,-4.5177,-4.4987,-4.5591,-4.5606,-4.562,-4.5719,-4.5747,-4.577,0,0,0,0,0,-4.4008,-4.4194,-4.4178,-4.4224,-4.4464,-4.4652,-4.4683,-4.471,-4.4639,-4.4731,-4.4793,-4.4762,-4.5138,-4.5041,-4.5087,-4.521,-4.5584,-4.5602,-4.5619,-4.5708,-4.5741,-4.5769,0,0,0,0,0,0,-4.4085,-4.4211,-4.4194,-4.4425,-4.4528,-4.4643,-4.4761,-4.4744,-4.487,-4.4857,-4.4886,-4.4916,-4.513,-4.5191,-4.5081,-4.5451,-4.5351,-4.5379,-4.5403,-4.5436,-4.546,-4.5442,-4.5001,0,0,0,0,0,-4.4128,-4.4269,-4.4371,-4.4565,-4.4618,-4.4681,-4.4763,-4.4775,-4.4883,-4.4927,-4.5004,-4.5112,-4.5255,-4.5348,-4.5484,-4.5727,-4.5757,-4.5835,-4.586,-4.588,-4.5905,-4.604,-4.6077,-4.5684,-4.5684,-4.5684,0,0,-4.422,-4.4306,-4.4393,-4.4583,-4.4664,-4.4811,-4.4718,-4.4876,-4.4986,-4.4952,-4.5155,-4.5215,-4.5338,-4.5566,-4.567,-4.5623,-4.6019,-4.5902,-4.5918,-4.5931,-4.6062,-4.6099,-4.6132,-4.5696,-4.5694,-4.5692,0,0,-4.4463,-4.4541,-4.4712,-4.4795,-4.4919,-4.4959,-4.5,-4.5119,-4.5158,-4.5361,-4.534,-4.5471,-4.5715,-4.5804,-4.5881,-4.6158,-4.6136,-4.6202,-4.6335,-4.6466,-4.6497,-4.6525,-4.6627,-4.6662,-4.6225,-4.6225,-4.6225,0,-4.4562,-4.478,-4.4802,-4.4964,-4.5049,-4.5023,-4.5198,-4.5278,-4.544,-4.5501,-4.5445,-4.5752,-4.5832,-4.6082,-4.6149,-4.6212,-4.6262,-4.6188,-4.6491,-4.6519,-4.6545,-4.6642,-4.668,-4.6232,-4.6232,-4.6231,-4.623,0,-4.4897,-4.5049,-4.5172,-4.5329,-4.5428,-4.5595,-4.5644,-4.5742,-4.5745,-4.5792,-4.6001,-4.6097,-4.6253,-4.6312,-4.6317,-4.6564,-4.6531,-4.6483,-4.6384,-4.6589,-4.6681,-4.6718,-4.6243,-4.624,-4.6238,-4.6236,0,0,-4.5196,-4.5363,-4.5408,-4.548,-4.5614,-4.5733,-4.59,-4.6051,-4.6135,-4.6248,-4.6391,-4.6598,-4.6554,-4.6642,-4.6657,-4.6772,-4.6989,-4.671,-4.6713,-4.6761,-4.727,-4.7307,-4.735,-4.6973,-4.6981,-4.6986,-4.726,0,-4.5453,-4.5746,-4.5771,-4.6035,-4.6177,-4.6155,-4.6301,-4.64,-4.6449,-4.6578,-4.6632,-4.6779,-4.6709,-4.6762,-4.6875,-4.6938,-4.7092,-4.6918,-4.711,-4.7116,-4.7082,-4.7397,-4.7437,-4.7691,-4.7296,-4.7302,-4.7307,0,-4.5792,-4.5915,-4.6193,-4.6309,-4.6369,-4.65,-4.6641,-4.6763,-4.6877,-4.6904,-4.7002,-4.7002,-4.7176,-4.7069,-4.7311,-4.7192,-4.7272,-4.7315,-4.7325,-4.7347,-4.7226,-4.743,-4.7772,-4.7812,-4.7363,-4.7358,-4.7354,0,-4.5986,-4.622,-4.6417,-4.6478,-4.6618,-4.6711,-4.6774,-4.688,-4.697,-4.7094,-4.7153,-4.7296,-4.7375,-4.7487,-4.7526,-4.7444,-4.7768,-4.7663,-4.7798,-4.7798,-4.787,-4.7865,-4.8233,-4.7916,-4.7916,-4.7915,-4.7914,0,-4.6272,-4.6443,-4.6506,-4.6627,-4.682,-4.6847,-4.7038,-4.7096,-4.7191,-4.7325,-4.7314,-4.7441,-4.7483,-4.7618,-4.765,-4.7847,-4.7882,-4.7912,-4.7919,-4.7914,-4.7911,-4.7969,-4.7953,-4.7925,-4.7923,-4.7921,-4.7919,0,-4.6521,-4.6569,-4.6783,-4.6898,-4.6931,-4.7068,-4.7167,-4.7285,-4.7331,-4.7501,-4.7543,-4.7616,-4.7774,-4.7823,-4.8014,-4.8036,-4.8268,-4.8257,-4.8229,-4.8231,-4.8365,-4.8353,-4.8785,-4.8844,-4.8486,-4.8489,-4.8492,0,-4.6701,-4.6833,-4.6961,-4.705,-4.7116,-4.7258,-4.735,-4.7382,-4.7478,-4.7618,-4.7721,-4.7876,-4.8003,-4.8257,-4.8329,-4.8476,-4.8471,-4.8612,-4.8493,-4.8486,-4.8477,-4.847,-4.8485,-4.8636,-4.8639,-4.8642,-4.8645,0,-4.7017,-4.7035,-4.7166,-4.7307,-4.7416,-4.7528,-4.7637,-4.771,-4.7759,-4.7868,-4.8029,-4.8127,-4.8321,-4.8478,-4.8627,-4.8694,-4.868,-4.8681,-4.8721,-4.872,-4.8699,-4.8715,-4.8294,-4.8672,-4.8669,-4.8667,-4.8666,-4.8665,-4.724,-4.7356,-4.7465,-4.7613,-4.7697,-4.7799,-4.7917,-4.7977,-4.8111,-4.8271,-4.8282,-4.8457,-4.8569,-4.8768,-4.8843,-4.8982,-4.8941,-4.8998,-4.9013,-4.9027,-4.904,-4.8674,-4.9009,-4.9008,-4.9007,-4.9007,-4.9006,0,-4.7557,-4.7626,-4.7761,-4.7913,-4.803,-4.8003,-4.8122,-4.8222,-4.8375,-4.848,-4.8605,-4.8791,-4.8942,-4.9026,-4.9178,-4.9274,-4.9271,-4.9313,-4.9308,-4.9324,-4.9065,-4.9017,-4.9313,-4.9313,-4.9313,-4.9313,-4.9312,-4.9312,-4.7736,-4.7933,-4.7964,-4.8204,-4.8272,-4.8442,-4.8512,-4.8607,-4.8691,-4.8899,-4.9024,-4.9077,-4.9175,-4.9334,-4.9473,-4.9494,-4.9552,-4.9599,-4.9616,-4.9373,-4.9342,-4.9312,-4.9267,-4.9611,-4.9611,-4.9864,-4.9866,-4.9868]}]]